Search for airport 
image banner adimage banner ad
image banner ad

EVAD - Adazi

Located in Adazi, Latvia

ICAO - EVAD, IATA -

Data provided by Airmate  

General information

Coordinates: N57°5'55" E24°15'60"
Elevation is 8 feet MSL.
Magnetic variation is 5° East
Rated:
View ratings: [VIEW]


View others Airports in Riga District

Operational data

Open for public use
Current time UTC:
Current local time:
Weather at : EVRA - Riga ( 26 km )
METAR: EVRA 142050Z VRB01KT 9999 MIFG FEW023 03/03 Q1020 R18/190095 NOSIG
TAF: TAF EVRA 142001Z 1421/1521 VRB02KT 7000 SCT030 TEMPO 1421/1506 0600 FG VV002 BECMG 1510/1512 08007KT TEMPO 1517/1521 4000 -RA BR BKN008 BKN015
View NOTAMs / SUP AIP / TFR affecting this airport [VIEW]
Communications frequencies: [VIEW]

Runways:

RWY identifierQFULength (ft)Width (ft)SurfaceLDA (ft)
15155°193649ASP+GRS1667
33335°193649ASP+GRS1568

Airport contact information

Address: Adazi Latvia

Other aviation service providers

Flight schools

Tmg

Tmg
info@tmg-ato.com+37129259085

Aviation club (not for profit)

First Fly

First Fly

Satellite view of EVAD